This demonstration page uses our WeatherBlox Daily Observations layout. Learn more.

Left ArrowRight Arrow

39.01783, -85.05884

Hourly Observations for December 8, 2022

Temp ( °F °C ) Dew Point ( °F °C ) Humidity (%) Winds ( mph kmh ) Pressure ( in mb ) Visibility ( mi km ) Precip ( " mm )
12:52 am 00:52 Cloudy with Mist and Fog 46 7.8 43 6.1 89 89 NE 7 11 30.33 1027 6 10 0.00 0.00
1:52 am 01:52 Cloudy with Mist and Fog 46 7.8 42 5.6 86 86 NNE 6 9 30.33 1027 6 10 0.00 0.00
2:52 am 02:52 Mostly Cloudy with Mist and Fog 45 7.2 42 5.6 90 90 NE 9 15 30.31 1027 6 10 0.00 0.00
3:52 am 03:52 Cloudy 45 7.2 41 5 86 86 ENE 7 11 30.31 1027 7 11 0.00 0.00
4:52 am 04:52 Mostly Cloudy 45 7.2 41 5 86 86 NNE 5 7 30.31 1026 7 11 0.00 0.00
5:52 am 05:52 Mostly Cloudy with Mist and Fog 45 7.2 41 5 86 86 NNE 5 7 30.30 1026 6 10 0.00 0.00
6:30 am 06:30 Cloudy with Mist and Fog 45 7.2 41 5 86 86 NNW 6 9 30.34 1027 6 10 0.00 0.00
6:52 am 06:52 Cloudy with Mist and Fog 44 6.7 42 5.6 93 93 NNE 6 9 30.31 1026 6 10 0.00 0.00
7:52 am 07:52 Cloudy with Mist and Fog 45 7.2 42 5.6 90 90 NNE 5 7 30.33 1027 6 10 0.00 0.00
8:52 am 08:52 Cloudy with Light Rain 45 7.2 42 5.6 90 90 ENE 7 11 30.32 1027 5 8 0.01 0.13
9:52 am 09:52 Cloudy with Light Rain 45 7.2 43 6.1 93 93 E 7 11 30.30 1026 5 8 0.01 0.25
10:28 am 10:28 Cloudy with Light Rain 45 7.2 43 6.1 93 93 NE 13 20 30.32 1027 5 8 0.01 0.25
10:52 am 10:52 Cloudy with Light Rain 45 7.2 43 6.1 93 93 ENE 13 20 30.28 1025 5 8 0.02 0.51
11:11 am 11:11 Cloudy with Light Rain 45 7.2 43 6.1 93 93 ENE 12 19 30.27 1025 4 6 0.01 0.13
11:52 am 11:52 Cloudy with Light Rain 45 7.2 44 6.7 97 97 ENE 12 19 30.24 1024 4 6 0.01 0.13
12:19 pm 12:19 Cloudy with Light Rain 45 7.2 44 6.7 97 97 NE 8 13 30.26 1025 4 6 0.01 0.13
12:34 pm 12:34 Cloudy with Light Rain 45 7.2 44 6.7 97 97 NNE 7 11 30.26 1025 4 6 0.01 0.25
12:52 pm 12:52 Cloudy with Light Rain 45 7.2 45 7.2 100 100 NNE 8 13 30.23 1024 4 6 0.02 0.51
1:52 pm 13:52 Cloudy with Light Rain 45 7.2 44 6.7 97 97 E 12 19 30.18 1022 3 5 0.01 0.13
2:41 pm 14:41 Cloudy with Light Rain 45 7.2 44 6.7 97 97 NE 7 11 30.25 1024 4 6 0.01 0.25
2:52 pm 14:52 Cloudy with Light Rain 45 7.2 44 6.7 97 97 NE 7 11 30.23 1024 4 6 0.01 0.25
3:17 pm 15:17 Cloudy with Light Rain 45 7.2 43 6.1 93 93 NE 7 11 30.25 1024 4 6 0.01 0.13
3:32 pm 15:32 Cloudy with Light Rain 45 7.2 44 6.7 97 97 NE 9 15 30.24 1024 4 6 0.01 0.13
3:52 pm 15:52 Cloudy with Light Rain 45 7.2 43 6.1 93 93 NE 10 17 30.22 1023 6 10 0.01 0.13
4:52 pm 16:52 Cloudy with Mist and Fog 45 7.2 43 6.1 93 93 NE 10 17 30.22 1024 5 8 0.01 0.13
5:12 pm 17:12 Cloudy with Mist and Fog 45 7.2 43 6.1 93 93 NNE 10 17 30.26 1025 5 8 0.00 0.00
5:43 pm 17:43 Cloudy with Mist and Fog 45 7.2 43 6.1 93 93 NE 12 19 30.26 1025 5 8 0.00 0.00
5:52 pm 17:52 Cloudy with Mist and Fog 45 7.2 43 6.1 93 93 NE 10 17 30.25 1024 5 8 0.00 0.00
6:52 pm 18:52 Cloudy with Mist and Fog 45 7.2 43 6.1 93 93 ENE 10 17 30.24 1024 5 8 0.00 0.00
7:52 pm 19:52 Cloudy with Mist and Fog 45 7.2 43 6.1 93 93 NE 9 15 30.25 1024 5 8 0.00 0.00
8:52 pm 20:52 Cloudy with Mist and Fog 45 7.2 42 5.6 90 90 ENE 8 13 30.24 1024 4 6 0.00 0.00
9:41 pm 21:41 Cloudy with Mist and Fog 45 7.2 43 6.1 93 93 NE 9 15 30.26 1025 4 6 0.01 0.13
9:52 pm 21:52 Cloudy with Mist and Fog 45 7.2 42 5.6 90 90 NE 7 11 30.25 1024 4 6 0.01 0.13
10:52 pm 22:52 Cloudy with Mist and Fog 44 6.7 42 5.6 93 93 ENE 7 11 30.24 1024 4 6 0.00 0.00
11:52 pm 23:52 Cloudy with Mist and Fog 44 6.7 42 5.6 93 93 NE 8 13 30.23 1024 3 5 0.00 0.00

Powered by AerisWeather